CAPE
1438 1363 1476 1664 1500 1355 1247 1290 1106 840 852 855 823 734 698 630 493 290 297 256 155 94
997 1069 1156 1228 1295 1137 961 1105 1003 886 854 617 431 212 280 603 659 449 279 482 165 75
170 298 476 636 669 857 949 914 864 840 664 589 426 125 181 516 532 514 237 231 181 185
3 5 26 56 75 168 323 724 811 1018 656 317 173 106 234 644 292 504 428 243 197 273
22 37 72 76 69 155 238 113 442 631 732 445 180 50 199 324 294 477 473 482 359 161
42 74 66 120 181 278 243 497 487 408 398 537 724 686 382 313 186 154 431 504 639 291
4 6 83 26 36 88 217 343 481 385 356 309 330 538 477 211 106 79 170 519 246 143
3 18 13 13 47 21 101 281 203 179 220 251 80 70 128 30 131 162 92 375 221 125
0 16 10 18 36 25 39 49 123 144 132 145 138 69 58 92 56 61 81 198 136 162
0 0 5 15 17 29 31 17 7 1 21 23 23 18 35 31 93 69 60 68 88 66
0 0 0 1 1 3 12 3 1 5 4 4 6 3 32 0 2 27 44 50 55 41
0 0 0 0 0 0 0 0 1 4 0 0 0 0 0 15 20 0 2 43 23 42
0 0 0 0 0 0 0 0 0 0 0 0 0 0 0 7 0 9 21 3 18 39
0 0 0 0 0 0 0 0 0 0 0 0 0 0 0 0 0 0 0 0 0 4
CIN
-59 -49 -62 -49 -56 -65 -108 -121 -75 -105 -112 -122 -166 -152 -87 -53 -20 -27 -39 -29 -74 -90
-41 -47 -104 -75 -62 -91 -121 -103 -89 -104 -87 -99 -209 -258 -149 -70 -26 -24 -33 -6 -42 -108
-35 -75 -101 -108 -106 -85 -80 -83 -78 -74 -76 -102 -139 -251 -177 -63 -43 -20 -23 -20 -43 -42
-181 -142 -224 -199 -134 -105 -95 -79 -54 -28 -49 -97 -131 -202 -136 -54 -69 -28 -5 -17 -41 -29
-120 -136 -121 -136 -135 -114 -100 -121 -57 -27 -14 -33 -86 -57 -100 -72 -59 -33 -7 -2 -6 -29
-95 -63 -81 -49 -30 -22 -34 -4 -3 -17 -21 -28 -19 -23 -54 -62 -55 -41 -21 -3 0 -6
0 -12 -41 -46 -32 -8 -1 0 0 -2 -6 -6 -12 -3 -2 -21 -36 -59 -43 -1 -2 -16
0 0 -5 -1 -5 -3 -1 0 0 0 -1 0 -5 -2 -2 -19 -6 -8 -25 0 -1 -6
0 -1 -2 -2 0 -1 0 0 0 0 -3 0 -2 0 -1 -5 -3 -17 -9 -5 0 -2
0 0 0 0 0 0 0 -2 -8 0 -5 -1 0 -1 -3 -5 0 0 -4 -12 -1 0
0 0 0 -1 -3 -6 -5 -11 -1 0 -3 -4 -1 -2 -3 0 -2 0 0 0 0 -1
0 0 0 0 0 0 -2 0 -1 0 0 0 0 0 0 -1 0 0 0 0 0 0
0 0 0 0 0 0 0 0 0 0 0 0 0 0 0 -1 0 -9 -3 0 0 0
0 0 0 0 0 0 0 0 0 0 0 0 0 0 0 0 0 0 0 0 0 0
Wind_Speed
67 53 46 46 40 36 36 33 34 36 38 38 46 49 39 39 34 35 35 32 29 nan
66 57 56 47 39 38 35 35 37 38 36 32 35 34 33 33 34 38 37 34 32 nan
72 60 59 48 46 38 36 38 39 38 34 35 38 42 39 41 41 40 38 37 35 34
nan nan nan nan nan 46 39 40 40 39 38 37 41 44 43 41 40 38 37 37 36 33
nan nan nan nan nan 52 53 42 42 43 41 38 38 nan 41 40 40 39 41 41 41 33
nan nan nan 50 55 59 58 58 48 46 44 42 44 42 38 36 38 38 38 44 44 36
nan nan nan nan nan nan 55 53 53 56 45 43 43 38 35 37 37 nan 34 42 45 41
nan nan nan nan nan nan 54 54 56 56 56 58 nan nan 46 nan 37 35 nan 37 40 45
nan nan nan nan nan nan nan nan 54 56 59 59 56 nan nan nan nan nan nan 38 39 41
nan nan nan nan nan nan nan nan nan nan nan nan nan nan nan nan nan nan nan nan nan nan
nan nan nan nan nan nan nan nan nan nan nan nan nan nan nan nan nan nan nan nan nan nan
nan nan nan nan nan nan nan nan nan nan nan nan nan nan nan nan nan nan nan nan nan nan
nan nan nan nan nan nan nan nan nan nan nan nan nan nan nan nan nan nan nan nan nan nan
nan nan nan nan nan nan nan nan nan nan nan nan nan nan nan nan nan nan nan nan nan nan
Wind_Direction
237 239 236 234 231 248 252 258 261 266 271 272 280 284 289 274 276 286 288 294 290 nan
232 235 235 227 228 239 251 253 261 270 279 271 284 296 289 284 288 290 286 283 287 nan
231 223 225 222 224 235 242 253 260 268 275 279 281 277 279 278 284 286 281 277 281 283
nan nan nan nan nan 230 232 251 257 264 270 273 273 275 276 282 283 287 284 280 281 278
nan nan nan nan nan 231 230 249 256 261 264 268 269 nan 279 281 281 289 288 286 276 272
nan nan nan 233 232 233 235 235 241 257 262 266 268 271 274 280 284 285 284 285 283 269
nan nan nan nan nan nan 238 239 238 238 245 256 258 265 269 276 280 nan 281 285 288 272
nan nan nan nan nan nan 238 239 241 239 239 241 nan nan 246 nan 275 271 nan 277 283 283
nan nan nan nan nan nan nan nan 240 238 240 244 247 nan nan nan nan nan nan 272 279 286
nan nan nan nan nan nan nan nan nan nan nan nan nan nan nan nan nan nan nan nan nan nan
nan nan nan nan nan nan nan nan nan nan nan nan nan nan nan nan nan nan nan nan nan nan
nan nan nan nan nan nan nan nan nan nan nan nan nan nan nan nan nan nan nan nan nan nan
nan nan nan nan nan nan nan nan nan nan nan nan nan nan nan nan nan nan nan nan nan nan
nan nan nan nan nan nan nan nan nan nan nan nan nan nan nan nan nan nan nan nan nan nan